Domov               UVHVVR             MKGP            O straneh              
ZDRAVSTVENO VARSTVO RASTLIN
  MREŽA AGROMET. POSTAJ
 ► PROGNOSTIČNA OBVESTILA
AGROMETEOROLOŠKI PODATKI -
ARSO
OBVLADOVANJE TVEGANJ ZARADI
NEUGODNIH VREMENSKIH RAZMER
  ► NARAVNE NESREČE
  ► SUŠA/MOČA
  ► NAMAKANJE
  ► ŽLED (gozdarstvo)
KARTOGRAFSKI PRIKAZI
SPLETNE POVEZAVE
PROJEKTI IN PUBLIKACIJE

AGROMETEOROLOŠKA MREŽA: VREMENSKE POSTAJE IN FENOLOŠKA OPAZOVANJA

Pregled podatkov za lokacijo Selo, meteorološka postaja 37838

Pregled senzorjev na lokaciji

ID Ime Zadnja
vrednost
Datum
zadnje
spremembe
Tip
senzorja
4044 Omočenost lista (U) 0 U 25.2.2018 16:15 A730WET
4045 Padavine (mm) 0 mm 25.2.2018 16:15 Rain-O-Matic
4047 Relativna vlaga 2 m (% RH) 49,87 % RH 25.2.2018 16:15 50YA
4046 Temperatura 2 m (°C) -6,4 °C 25.2.2018 16:15 50YA

Pregled podatkov zadnjih 24 ur

Zap.
št.
Datum in čas Selo
Omočenost
lista
Padavine Relativna
vlaga
2
m
Temperatura
2
m
1 25.2.2018 16:30
2 25.2.2018 16:00 0 0 49,3 -6,1
3 25.2.2018 15:30 0 0 48,4 -5,7
4 25.2.2018 15:00 0 0 46,7 -5,4
5 25.2.2018 14:30 0 0 45 -5,4
6 25.2.2018 14:00 0 0 45,7 -5,6
7 25.2.2018 13:30 0 0 46,3 -5,5
8 25.2.2018 13:00 0 0 47,2 -5,7
9 25.2.2018 12:30 0 0 46,3 -5,3
10 25.2.2018 12:00 0 0 47,5 -5,6
11 25.2.2018 11:30 0 0 48,3 -6,1
12 25.2.2018 11:00 0 0 49,5 -6,7
13 25.2.2018 10:30 0 0 51,2 -7,3
14 25.2.2018 10:00 0 0 54,6 -7,9
15 25.2.2018 09:30 0 0 57 -8,4
16 25.2.2018 09:00 0 0 58,6 -8,8
17 25.2.2018 08:30 0 0 63,2 -9,7
18 25.2.2018 08:00 0 0 65,6 -10,2
19 25.2.2018 07:30 0 0 67,7 -10,6
20 25.2.2018 07:00 0 0 67,5 -10,6
21 25.2.2018 06:30 0 0 66,4 -10,5
22 25.2.2018 06:00 0 0 66,3 -10,2
23 25.2.2018 05:30 0 0 66,5 -10
24 25.2.2018 05:00 0 0 65,7 -9,7
25 25.2.2018 04:30 0 0 64,4 -9,4
26 25.2.2018 04:00 0 0 64,4 -9,4
27 25.2.2018 03:30 0 0 63,7 -8,8
28 25.2.2018 03:00 0 0 62,9 -8,6
29 25.2.2018 02:30 0 0 63,5 -8,4
30 25.2.2018 02:00 0 0 65,5 -8,1
31 25.2.2018 01:30 0 0 65,2 -7,7
32 25.2.2018 01:00 0 0 65,7 -7,6
33 25.2.2018 00:30 0 0 65,1 -7,4
34 25.2.2018 00:00 0 0 63,5 -7,2
35 24.2.2018 23:30 0 0 59,6 -6,7
36 24.2.2018 23:00 0 0 56 -6,4
37 24.2.2018 22:30 0 0 53,7 -6,2
38 24.2.2018 22:00 0 0 54,7 -6,2
39 24.2.2018 21:30 0 0 54,3 -5,8
40 24.2.2018 21:00 0 0 53,1 -5,6
41 24.2.2018 20:30 0 0 54,7 -5,2
42 24.2.2018 20:00 0 0 65,2 -5,1
43 24.2.2018 19:30 0 0 66,5 -4,5
44 24.2.2018 19:00 0 0 64,1 -4
45 24.2.2018 18:30 0 0 59 -4
46 24.2.2018 18:00 0 0 57,5 -3,7
47 24.2.2018 17:30 0 0 55,8 -3,4
48 24.2.2018 17:00 0 0 53,7 -2,8
© 2011 Ministrstvo za kmetijstvo, gozdarstvo in prehrano. Vse pravice pridržane.